STARLINK-31199, 58861

Orbit data source: Space-Track

STARLINK-31199, 58861 is a payload satellite owned by SpaceX/Seattle (US) in LEO that was launched on Mon, 29 Jan 2024 UTC via an FALCON 9 launch vehicle from the Air Force Eastern Test Range (AFETR). Payload-class satellites include a variety of spacecraft equipped with specific instruments for various scientific and technological missions. These include communications satellites like Starlink; space stations such as the ISS; scientific satellites like the Hubble; Earth observation satellites from companies like Planet Labs, Umbra, and HawkEye 360; GPS; miniature CubeSats for education and research; and military/defense satellites.

Loading next visibility...
Identifier
58861, 2024-019J
Orbit
LEO
Country
Flag of USUS
Related business
Manufacturer
SpaceX/Seattle
Mission
Operational Commercial Communications
Bus & Motor
STARLINK V2M, Unknown motor
Mass
730 kg wet, ~700 kg dry
Launch date (UTC)
2024-01-29 (2 years ago)
Launch vehicle
FALCON 9
Launch site
Air Force Eastern Test Range (AFETR)
Object type
Payload
Rocket body
Debris
Shape & HBR
Box + 2 Pan, 17.7 m
Radar Cross Section
33.884 m², Large (>1 m²)

Expand to show TLE details & history
Last TLE update: 2 days ago

TLE from 2 days ago
0 STARLINK-31199
1 58861U 24019J   26171.01987482  .00000876  00000-0  41331-4 0  9997
2 58861  43.0008  30.9159 0001126 271.0920  88.9803 15.27582119134738
Epoch: 2026-06-20T00:28Z
TLE epoch observation values (Epoch: 2026-06-20T00:28:37.184Z)
Latitude
0.00001°
Longitude
115.52047°
Altitude
482.805 km
Speed
7.626 km/s
True Right ascension
02h 03m 39s
True Declination
0° 00' 00"
Sunlit
Object was in daylight at epoch
Visualization orbit readout
Latitude
Unknown
Longitude
Unknown
Altitude
Unknown
Speed
Unknown
Apparent Right ascension
Unknown
Apparent Declination
Unknown
Sunlit
N/A
Visualization observer readout
Local Sidereal Time
21:32:23
Azimuth
Unknown
Elevation
Unknown
Doppler factor
Unknown
Orbital elements
Apogee altitude
485.761 km
Perigee altitude
484.215 km
Semi-major axis
6,863.125 km
Eccentricity
0.00011
Inclination
43.0008°
RAAN
30.9159°
Arg. of periapsis
271.092°
True anomaly
88.9932°
Mean anomaly
88.9803°
Eccentric anomaly
88.98675°
Mean motion
3.81734 °/min
Orbital period
94.31 mins
BSTAR
0.000041331
Loading maneuver chart data...
Computing Atmospheric mass density...
Loading historical data...
Loading historical data...
Loading historical data...
Loading historical data...
Loading historical data...
Loading historical data...
Loading historical data...

Documentation

Showing up to 5 results
|